Hourly Data Report for July 12, 2021

WIARTON A
ONTARIO
Current Station Operator: NAVCAN

44°44'39.000" N
81°06'31.000" W
221.90 m
6119499
71633
YVV

Download Data

Hourly Data (July 2021)
Hourly Data Report for July 12, 2021
TIME
LST
Temp Definition
°C
Dew Point Definition
°C
Rel Hum Definition
%
Precip. Amount Definition
mm

Wind Dir Definition
10's deg

Wind Spd Definition
km/h
Visibility Definition
km
Stn Press Definition
kPa
Hmdx Definition


Wind Chill Definition


Weather Definition


00:00 15.4 14.2 92   4 4 24.1 99.24     LegendNANA
01:00 13.4 12.5 94   5 6 24.1 99.26     Mainly Clear
02:00 14.0 13.0 94   36 1 24.1 99.28     LegendNANA
03:00 12.0 11.7 98   36 1 24.1 99.30     LegendNANA
04:00 11.6 11.3 98   36 2 24.1 99.29     Mainly Clear
05:00 12.1 11.7 97   4 3 24.1 99.32     LegendNANA
06:00 14.9 14.5 97   11 5 24.1 99.35     LegendNANA
07:00 16.5 15.4 93   0 1 24.1 99.39     Mostly Cloudy
08:00 19.8 16.8 83   33 4 24.1 99.43     LegendNANA
09:00 22.8 16.9 69   11 12 24.1 99.44 28   LegendNANA
10:00 24.0 16.6 63   10 18 24.1 99.45 29   Mostly Cloudy
11:00 24.6 16.7 61   9 12 24.1 99.46 30   LegendNANA
12:00 24.8 15.0 54   10 17 24.1 99.46 29   LegendNANA
13:00 25.5 18.3 64   7 14 24.1 99.44 32   Cloudy
14:00 25.2 18.1 64   8 16 24.1 99.40 31   LegendNANA
15:00 25.6 17.5 60   7 18 24.1 99.38 31   LegendNANA
16:00 25.7 15.5 53   9 19 24.1 99.34 30   Cloudy
17:00 25.2 16.8 59   12 19 24.1 99.31 30   LegendNANA
18:00 23.6 17.4 68   12 9 24.1 99.28 29   LegendNANA
19:00 23.3 18.0 72   13 5 24.1 99.33 29   Cloudy
20:00 22.1 18.0 78   9 4 24.1 99.32 28   LegendNANA
21:00 21.2 18.1 82   8 6 24.1 99.31 27   LegendNANA
22:00 20.1 18.1 88   28 5 24.1 99.33 26   Cloudy
23:00 19.9 17.8 88   36 3 24.1 99.33     LegendNANA

Notes on Data Quality.

Legend

  • E = Estimated
  • M = Missing
  • NA = Not Available*
  • [empty] = Indicates an unobserved value
Date modified: